Montana Department of Transportation

Main Content

Accidents and Incidents Report

Hourly Weather Roundup

ASUS45 KTFX 192010

RWRMT 

MONTANA REGIONAL WEATHER ROUNDUP

NATIONAL WEATHER SERVICE GREAT FALLS MT

200 PM MDT TUE JUN 19 2018



NOTE: "FAIR" INDICATES FEW OR NO CLOUDS BELOW 12000 FEET WITH NO

SIGNIFICANT WEATHER AND/OR OBSTRUCTIONS TO VISIBILITY.



MTZ001.007-043-192100-

WEST OF THE DIVIDE

  

CITY           SKY/WX    TMP DP  RH WIND       PRES   REMARKS

KALISPELL      PTSUNNY   69  50  50 E10       30.15R                  

MISSOULA       CLOUDY    64  54  69 VRB3      30.15S                  

BUTTE          LGT RAIN  53  47  79 NW12      30.19R                  

MULLAN PASS    CLOUDY    56  41  57 CALM      30.23R                  

DEER LODGE       N/A     55  48  76 NW14G20   30.18R                  

HAMILTON         N/A     59  52  77 N6        30.17S                  

LIBBY            N/A     70  50  49 SW5       30.12S                  

PLAINS           N/A     70  52  52 CALM      30.13R                  

RONAN            N/A     64  52  63 NE8       30.16S                  

--------------------------------



MTZ008-052.055-192100-

SOUTHWEST MONTANA

  

CITY           SKY/WX    TMP DP  RH WIND       PRES   REMARKS

BOZEMAN        LGT RAIN  54  50  86 S3        30.16R                  

DILLON         CLOUDY    53  50  89 NE10      30.17R                  

ENNIS          RAIN      52  50  93 NW6       30.21R                  

W YELLOWSTONE  PTSUNNY   55  43  62 SW8G16    30.17S                  

TWIN BRIDGES     N/A     54  47  77 CALM      30.14R                  

--------------------------------



MTZ009-010-012-014-046-048-049-054-192100-

EAST SLOPES AND CENTRAL MONTANA

  

CITY           SKY/WX    TMP DP  RH WIND       PRES   REMARKS

CUT BANK       CLOUDY    61  49  64 N12       30.17S                  

GREAT FALLS    LGT RAIN  58  55  90 NW10      30.12S FOG              

MALMSTROM AFB  PTSUNNY   59  54  84 NW13      30.11S                  

HELENA         CLOUDY    60  52  74 N9        30.13R                  

AUGUSTA        LGT RAIN  52 N/A N/A N12       30.17S                  

BOWMANS CRNR   LGT RAIN  51  50  95 N17       30.14S                  

CHOTEAU          N/A     57  54  88 N14       30.18S                  

FAIRFIELD      LGT RAIN  55  51  86 N12G20    30.14S                  

POWER          LGT RAIN  55  53  93 N12       30.12S                  

RAYNESFORD     LGT RAIN  56  53  89 W10       30.11S                  

ULM            LGT RAIN  55  54  94 N9        30.13R                  

WHITE SULPHUR    N/A     50  46  87 S8        30.13S                  

--------------------------------



MTZ011-013-016-021-045-047-050-051-192100-

NORTH CENTRAL MONTANA

  

CITY           SKY/WX    TMP DP  RH WIND       PRES   REMARKS

HAVRE          CLOUDY    65  54  67 E20       30.09R                  

LEWISTOWN      PTSUNNY   57  47  69 CALM      30.11R                  

N BAR RANCH    CLOUDY    61  50  67 VRB7G13   30.14S                  

CHINOOK          N/A     68  57  68 E9        30.09S                  

DENTON         LGT RAIN  59  59 100 SW3       30.06S                  

GEYSER         PTSUNNY   59  53  80 NE3       30.09S                  

GRASS RANGE    LGT RAIN  58  52  80 W6        30.07R                  

JUDITH GAP     LGT RAIN  55  50  82 SW8       30.12S                  

ROY            HVY RAIN N/A N/A N/A SW3         N/A                   

STANFORD       PTSUNNY   57  48  72 CALM      30.10S                  

WINIFRED       PTSUNNY   60  54  78 SW5       30.09R                  

--------------------------------



MTZ017.020-022.027-061-062-192100-

NORTHEAST MONTANA

  

CITY           SKY/WX    TMP DP  RH WIND       PRES   REMARKS

GLASGOW        PTSUNNY   75  53  46 SE15      30.10S                  

GLENDIVE       CLOUDY    69  54  58 E9        30.11S                  

JORDAN           N/A     68  56  65 VRB7      30.08F                  

MALTA          CLOUDY    66  55  68 E12       30.08S                  

SIDNEY         CLOUDY    73  51  46 VRB6      30.10FWOLF POINT     CLOUDY    73  51  46 VRB7      30.10F                  

PLENTYWOOD       N/A     73  48  40 CALM      30.12S                  

POPLAR           N/A     72  48  43 SE9       30.11S                  

SCOBEY           N/A     71  46  40 E7        30.12R                  

--------------------------------



MTZ028.42-056.058-192100-

SOUTHCENTRAL AND SOUTHEAST MONTANA

  

CITY           SKY/WX    TMP DP  RH WIND       PRES   REMARKS

BAKER          PTSUNNY   67  52  58 E13       30.11S                  

BILLINGS       FAIR      68  53  58 E7        30.07F                  

LIVINGSTON     LGT RAIN  55  53  93 NW8       30.13R                  

MILES CITY     CLOUDY    69  55  60 SE13      30.07R                  

BIG TIMBER     CLOUDY    59  52  77 S8        30.12S                  

EKALAKA          N/A     64  52  65 E13       30.08F                  

FORSYTH          N/A     70  55  60 E7        30.05R                  

HARLOWTON      LGT RAIN  55  50  82 W9        30.12S                  

LAUREL           N/A     66  54  63 NE8G14    30.07                   

--------------------------------



REGIONAL REPORTS...DAKOTAS

  

CITY           SKY/WX    TMP DP  RH WIND       PRES   REMARKS

WILLISTON      CLOUDY    73  49  42 E8        30.11S                  

MINOT          PTSUNNY   77  50  38 NE6       30.08F                  

DICKINSON      CLOUDY    69  54  58 E9        30.08F                  

BEACH          CLOUDY    68  52  56 E8G15     30.14S                  

CROSBY         FAIR      77  46  33 NE7G15    30.12S                  

TIOGA          PTSUNNY   73  50  43 E7        30.13S                  

WATFORD CITY   FAIR      73  52  46 E8        30.10F                  

BISMARCK       CLOUDY    75  53  46 VRB7      30.06F                  

GRAND FORKS    PTSUNNY   81  52  36 VRB5      30.03F                  

FARGO          PTSUNNY   79  52  38 E5        30.02F                  

BUFFALO SD       N/A     66  54  65 E10       30.05R                  

RAPID CITY     RAIN      65  60  84 NE12      30.07F                  

--------------------------------



REGIONAL REPORTS...WYOMING/IDAHO/WASHINGTON

  

CITY           SKY/WX    TMP DP  RH WIND       PRES   REMARKS

GILLETTE       FAIR      68  55  63 E6        30.04F                  

SHERIDAN       CLOUDY    66  55  67 N6        30.07S                  

BUFFALO WY     FAIR      62  52  69 N7          N/A  THUNDER          

CODY           FAIR      67  51  56 N15       30.08S                  

YELLOWSTONE LA   N/A     52  38  58 W5        30.24S                  

IDAHO FALLS    CLOUDY    63  48  58 SW9       30.15S                  

SALMON         CLOUDY    61  49  64 CALM      30.13S                  

BOISE          FAIR      73  52  47 NW9       30.10F                  

SPOKANE        PTSUNNY   76  46  34 E3        30.11S                  

--------------------------------



REGIONAL REPORTS...ALBERTA

  

CITY           SKY/WX    TMP DP  RH WIND       PRES   REMARKS

CALGARY        MOSUNNY   73  45  35 S6        30.17F                  

EDMONTON       SUNNY     81  46  30 SE5       30.10S                  

FORT MCMURRAY  CLOUDY    84  48  28 W9        29.97S                  

HIGH LEVEL     MOSUNNY   88  41  19 VRB6      29.90F                  

LLOYDMINSTER   MOSUNNY   81  46  30 SW8       30.11S                  

MEDICINE HAT   CLOUDY    73  41  31 NE10      30.13S                  

MILK RIVER       N/A     63  52  67 N8          N/A                   

PEACE RIVER    MOSUNNY   84  54  34 VRB2      30.02S                  

PINCHER CREEK  PTSUNNY   64  50  59 NW3       30.20S                  

WATERTON GATE    N/A     59  50  72 SW2         N/A                   

--------------------------------



REGIONAL REPORTS...SASKATCHEWAN

  

CITY           SKY/WX    TMP DP  RH WIND       PRES   REMARKS

CORONACH         N/A     73  46  38 E7          N/A                   

CYPRESS HILLS    N/A     61  46  59 E8          N/A                   

ESTEVAN        CLOUDY    77  48  36 SE7       30.11S                  

MOOSE JAW        N/A     73  46  38 SE3         N/A                   

PRINCE ALBERT  MOSUNNY   84  45  24 W6        30.07F                  

REGINA         PTSUNNY   73  48  40 CALM      30.13S                  

SASKATOON      PTSUNNY   82  39  21 SW3       30.11F                  

SWIFT CURRENT  CLOUDY    68  45  42 SE6       30.15F                  

VAL MARIE        N/A     70  46  43 SE13G18     N/A                   

--------------------------------